[[{"header":{"parameterUnit":"m.s-1","parameterCategory":1,"la1":30.2991,"la2":30.254,"lo1":-89.0895,"lo2":-89.0444,"dy":0.0017,"dx":0.0017,"nx":28,"ny":28,"refTime":"2023-08-31T03:00:00:Z","depth":0,"parameterNumber":2,"parameterNumberName":"U-component_of_WINDS"},"data":[0,0,0,0,0,0,0,0,0,0,0,0,0,0,0,0,0,0,0,0,0,0,0,0,0,0,0,0,0,0,0,0,0,0,0,0,0,0,0,0,0,0,0,0,0,0,0,0,0,0,0,0,0,0,0,0,0,0,-1.7612,-1.7613,0,-1.7713,-1.7714,-1.7715,-1.7657,-1.7654,-1.7652,-1.7649,-1.7755,-1.776,-1.7766,0,0,0,0,0,0,0,0,0,0,0,0,0,-1.7371,-1.7376,-1.7612,-1.7613,-1.7615,-1.7713,-1.7714,-1.7715,-1.7658,-1.7654,-1.7651,-1.7648,-1.7753,-1.776,-1.7766,0,0,0,0,0,0,0,0,0,0,0,0,0,-1.7475,-1.7378,-1.7612,-1.7597,-1.7597,-1.7712,-1.7714,-1.7716,-1.7658,-1.7654,-1.765,-1.7646,-1.7751,-1.7759,-1.7767,-1.7903,0,0,-1.7792,-1.7796,0,0,0,0,0,0,0,0,-1.7469,-1.7483,-1.7598,-1.7599,-1.7599,-1.7668,-1.7668,-1.7779,-1.766,-1.7635,-1.7649,-1.7644,-1.773,-1.7739,-1.7768,-1.7908,-1.7913,-1.7793,-1.7798,-1.7801,-1.7804,0,0,0,0,0,0,0,-1.7462,-1.7479,-1.7652,-1.76,-1.76,-1.7587,-1.7597,-1.7689,-1.7705,-1.7637,-1.7633,-1.7646,-1.7729,-1.776,-1.777,-1.7914,-1.7793,-1.78,-1.7805,-1.7808,-1.8171,-1.8176,0,0,0,0,0,0,-1.7455,-1.7473,-1.7649,-1.7655,-1.7522,-1.7594,-1.7606,-1.765,-1.7704,-1.7708,-1.7649,-1.7643,-1.7748,-1.776,-1.7773,-1.7936,-1.7801,-1.7809,-1.7814,-1.8166,-1.8172,-1.8177,0,0,0,0,0,0,-1.745,-1.7471,-1.7645,-1.7563,-1.7584,-1.7603,-1.7654,-1.7654,-1.7685,-1.7713,-1.7716,-1.7678,-1.7745,-1.7762,-1.7871,-1.7939,-1.7813,-1.782,-1.8161,-1.8168,-1.8175,-1.8264,0,0,0,0,0,0,-1.7444,-1.747,-1.7521,-1.7565,-1.7589,-1.7741,-1.7658,-1.7659,-1.7699,-1.7692,-1.7741,-1.7745,-1.7743,-1.7859,-1.7879,-1.7948,-1.7827,-1.8155,-1.8164,-1.8172,-1.8255,-1.8273,-1.8288,0,0,0,0,0,-1.7435,-1.7543,-1.7524,-1.7546,-1.7653,-1.7745,-1.7758,-1.7753,-1.7705,-1.7757,-1.7775,-1.7743,-1.7928,-1.7871,-1.7893,-1.7966,-1.8151,-1.8162,-1.8172,-1.8247,-1.8269,-1.8288,0,0,0,0,0,0,-1.7509,-1.7549,-1.7528,-1.7653,-1.7696,-1.7734,-1.78,-1.7777,-1.7835,-1.7825,-1.7817,-1.7829,-1.7943,-1.7965,-1.79,-1.81,-1.8032,-1.8048,-1.8082,-1.8103,-1.812,-1.8112,-1.7833,0,0,0,0,0,-1.7539,-1.7609,-1.764,-1.7748,-1.777,-1.7782,-1.7821,-1.7813,-1.7858,-1.7876,-1.7901,-1.7946,-1.8014,-1.806,-1.8124,-1.8257,-1.8267,-1.8318,-1.8335,-1.8348,-1.8362,-1.8435,-1.8458,-1.8212,-1.8212,-1.8212,0,0,-1.7603,-1.7634,-1.7679,-1.7763,-1.7795,-1.7869,-1.7797,-1.7878,-1.7933,-1.7888,-1.7993,-1.8013,-1.8063,-1.8185,-1.824,-1.8207,-1.8432,-1.8362,-1.8373,-1.8379,-1.8448,-1.8471,-1.8492,-1.8219,-1.8218,-1.8217,0,0,-1.7758,-1.7788,-1.788,-1.7914,-1.7963,-1.797,-1.7992,-1.8034,-1.8046,-1.8151,-1.8119,-1.8184,-1.8301,-1.8338,-1.8372,-1.854,-1.8513,-1.8561,-1.8649,-1.872,-1.8739,-1.8757,-1.8817,-1.8839,-1.8574,-1.8575,-1.8575,0,-1.7832,-1.7941,-1.7931,-1.8014,-1.8053,-1.8014,-1.8109,-1.8142,-1.821,-1.8238,-1.8199,-1.8345,-1.8376,-1.8506,-1.8547,-1.8575,-1.8601,-1.8556,-1.8737,-1.8754,-1.877,-1.8828,-1.8851,-1.858,-1.8579,-1.8579,-1.8578,0,-1.8029,-1.8105,-1.8174,-1.824,-1.8286,-1.8374,-1.8379,-1.8427,-1.8415,-1.8426,-1.8533,-1.8568,-1.8639,-1.8669,-1.8659,-1.8798,-1.8776,-1.8738,-1.8669,-1.8799,-1.8854,-1.8876,-1.8588,-1.8586,-1.8584,-1.8583,0,0,-1.8235,-1.8293,-1.8319,-1.8348,-1.8399,-1.8458,-1.8545,-1.8613,-1.8654,-1.8702,-1.8775,-1.8875,-1.884,-1.8878,-1.8871,-1.8933,-1.9065,-1.8887,-1.8888,-1.892,-1.9221,-1.9251,-1.9276,-1.9047,-1.9051,-1.9054,-1.9217,0,-1.8393,-1.8544,-1.8538,-1.8679,-1.8749,-1.8713,-1.8789,-1.8829,-1.8841,-1.8903,-1.8917,-1.8988,-1.8936,-1.8959,-1.9018,-1.9036,-1.9125,-1.9024,-1.9116,-1.9119,-1.9106,-1.9305,-1.9336,-1.9489,-1.9238,-1.9242,-1.9245,0,-1.8599,-1.8653,-1.8801,-1.8841,-1.887,-1.8938,-1.9,-1.906,-1.9104,-1.9109,-1.9152,-1.9135,-1.9223,-1.9151,-1.9273,-1.9204,-1.9241,-1.9256,-1.9261,-1.9271,-1.9191,-1.932,-1.9537,-1.956,-1.9278,-1.9275,-1.9273,0,-1.8735,-1.8844,-1.8947,-1.8973,-1.9023,-1.9071,-1.9094,-1.9134,-1.9176,-1.923,-1.9257,-1.9321,-1.9356,-1.9407,-1.9408,-1.9355,-1.9531,-1.9459,-1.9539,-1.9539,-1.9579,-1.9576,-1.9805,-1.9601,-1.96,-1.96,-1.9599,0,-1.8913,-1.9006,-1.9009,-1.9073,-1.9175,-1.9167,-1.9268,-1.9286,-1.9322,-1.9389,-1.9362,-1.9425,-1.9422,-1.9486,-1.9487,-1.9589,-1.9605,-1.9612,-1.9611,-1.9615,-1.9614,-1.964,-1.963,-1.9606,-1.9605,-1.9603,-1.9602,0,-1.9083,-1.9089,-1.9199,-1.9236,-1.9248,-1.9322,-1.9354,-1.9414,-1.9424,-1.9508,-1.9528,-1.9543,-1.9618,-1.9623,-1.9709,-1.971,-1.9833,-1.982,-1.9818,-1.9816,-1.9895,-1.9888,-2.015,-2.0184,-1.9956,-1.9958,-1.996,0,-1.9198,-1.9268,-1.9312,-1.9354,-1.938,-1.9449,-1.949,-1.9485,-1.9529,-1.9585,-1.9639,-1.971,-1.9767,-1.9888,-1.9907,-1.9973,-1.9962,-2.0049,-1.9972,-1.9974,-1.9965,-1.9961,-1.9968,-2.0065,-2.0067,-2.0069,-2.0071,0,-1.94,-1.9399,-1.946,-1.9522,-1.9572,-1.9621,-1.9667,-1.9703,-1.9703,-1.9755,-1.983,-1.9874,-1.9961,-2.0033,-2.0097,-2.0121,-2.0097,-2.0095,-2.0117,-2.0122,-2.0118,-2.0122,-1.986,-2.0089,-2.0088,-2.0086,-2.0085,-2.0084,-1.9546,-1.9607,-1.9648,-1.9716,-1.9749,-1.9792,-1.9851,-1.9867,-1.993,-2.0,-1.9993,-2.0076,-2.0118,-2.0202,-2.0231,-2.0297,-2.0267,-2.0299,-2.0307,-2.0315,-2.0324,-2.0107,-2.0308,-2.0308,-2.0307,-2.0307,-2.0306,0,-1.9748,-1.9772,-1.9835,-1.9899,-1.9953,-1.9924,-1.9973,-2.002,-2.0094,-2.0135,-2.0191,-2.0277,-2.0346,-2.0371,-2.0438,-2.0486,-2.0476,-2.0504,-2.0501,-2.0507,-2.0346,-2.0321,-2.051,-2.051,-2.051,-2.051,-2.051,-2.051,-1.986,-1.9961,-1.9965,-2.0082,-2.0105,-2.0186,-2.0217,-2.0256,-2.0289,-2.0386,-2.0443,-2.0458,-2.0493,-2.0562,-2.0624,-2.0629,-2.0656,-2.0688,-2.0689,-2.0539,-2.0518,-2.0499,-2.0475,-2.0694,-2.0694,-2.0845,-2.0846,-2.0847]},{"header":{"parameterUnit":"m.s-1","parameterCategory":1,"la1":30.2991,"la2":30.254,"lo1":-89.0895,"lo2":-89.0444,"dy":0.0017,"dx":0.0017,"nx":28,"ny":28,"refTime":"2023-08-31T03:00:00:Z","depth":0,"parameterNumber":3,"parameterNumberName":"V-component_of_WINDS"},"data":[0,0,0,0,0,0,0,0,0,0,0,0,0,0,0,0,0,0,0,0,0,0,0,0,0,0,0,0,0,0,0,0,0,0,0,0,0,0,0,0,0,0,0,0,0,0,0,0,0,0,0,0,0,0,0,0,0,0,-3.4533,-3.4533,0,-3.45,-3.4499,-3.4499,-3.4421,-3.4419,-3.4417,-3.4416,-3.438,-3.4381,-3.4381,0,0,0,0,0,0,0,0,0,0,0,0,0,-3.4526,-3.4527,-3.4533,-3.4533,-3.4532,-3.45,-3.4499,-3.4499,-3.4421,-3.4419,-3.4417,-3.4415,-3.438,-3.4381,-3.4381,0,0,0,0,0,0,0,0,0,0,0,0,0,-3.4515,-3.4527,-3.4533,-3.449,-3.4485,-3.45,-3.4499,-3.4499,-3.4421,-3.4419,-3.4417,-3.4414,-3.438,-3.4381,-3.4381,-3.4435,0,0,-3.4384,-3.4384,0,0,0,0,0,0,0,0,-3.4515,-3.4515,-3.4496,-3.4493,-3.4488,-3.4462,-3.4483,-3.4477,-3.4422,-3.4446,-3.4416,-3.4413,-3.4409,-3.4407,-3.4406,-3.4433,-3.4432,-3.4384,-3.4384,-3.4385,-3.4385,0,0,0,0,0,0,0,-3.4516,-3.4516,-3.452,-3.4496,-3.4491,-3.447,-3.4466,-3.4482,-3.4441,-3.4443,-3.4438,-3.4435,-3.4406,-3.4406,-3.4405,-3.4431,-3.4384,-3.4385,-3.4385,-3.4386,-3.4496,-3.4498,0,0,0,0,0,0,-3.4524,-3.4517,-3.4521,-3.4519,-3.4496,-3.4473,-3.4468,-3.4473,-3.4441,-3.4434,-3.4437,-3.4431,-3.4406,-3.4404,-3.4403,-3.4461,-3.4385,-3.4386,-3.4386,-3.4494,-3.4496,-3.4499,0,0,0,0,0,0,-3.4524,-3.4525,-3.4522,-3.4516,-3.4514,-3.4475,-3.4481,-3.4473,-3.4473,-3.4436,-3.4428,-3.4444,-3.4404,-3.4402,-3.4427,-3.4459,-3.4386,-3.4387,-3.4491,-3.4494,-3.4498,-3.4579,0,0,0,0,0,0,-3.4524,-3.4525,-3.4546,-3.4517,-3.4515,-3.4548,-3.4483,-3.4474,-3.4474,-3.4467,-3.4441,-3.4434,-3.4402,-3.4426,-3.4428,-3.4459,-3.4387,-3.4488,-3.4492,-3.4497,-3.4574,-3.4585,-3.4595,0,0,0,0,0,-3.4524,-3.4571,-3.4548,-3.4549,-3.4541,-3.455,-3.4548,-3.451,-3.4477,-3.4497,-3.4473,-3.4435,-3.4456,-3.4429,-3.443,-3.4462,-3.4485,-3.4491,-3.4496,-3.4569,-3.4583,-3.4595,0,0,0,0,0,0,-3.4605,-3.4567,-3.454,-3.458,-3.4569,-3.4536,-3.4561,-3.4527,-3.4525,-3.4518,-3.447,-3.4465,-3.4495,-3.4481,-3.4453,-3.451,-3.4464,-3.447,-3.4519,-3.4532,-3.4543,-3.4545,-3.4388,0,0,0,0,0,-3.4628,-3.4639,-3.4604,-3.4642,-3.4638,-3.4601,-3.4603,-3.4575,-3.4561,-3.4556,-3.4534,-3.4521,-3.4524,-3.4527,-3.4529,-3.4571,-3.4563,-3.4593,-3.4604,-3.4613,-3.4619,-3.4637,-3.4649,-3.4517,-3.4517,-3.4517,0,0,-3.4674,-3.4655,-3.4665,-3.4658,-3.4646,-3.4657,-3.4597,-3.4612,-3.462,-3.4558,-3.4579,-3.4562,-3.4545,-3.4578,-3.4591,-3.4567,-3.4653,-3.462,-3.4628,-3.4628,-3.4644,-3.4656,-3.4667,-3.4521,-3.452,-3.452,0,0,-3.4764,-3.4752,-3.478,-3.4769,-3.4751,-3.4726,-3.4733,-3.4705,-3.4691,-3.4712,-3.4665,-3.4672,-3.468,-3.4668,-3.4663,-3.4746,-3.4709,-3.4748,-3.4804,-3.4822,-3.4833,-3.4842,-3.4868,-3.4879,-3.4754,-3.4754,-3.4754,0,-3.4824,-3.484,-3.4799,-3.4817,-3.4814,-3.4758,-3.4785,-3.4776,-3.476,-3.4759,-3.4732,-3.4738,-3.4722,-3.475,-3.477,-3.4769,-3.4773,-3.475,-3.4835,-3.4843,-3.4851,-3.4876,-3.4886,-3.4758,-3.4758,-3.4757,-3.4757,0,-3.4913,-3.4925,-3.495,-3.4935,-3.4935,-3.4958,-3.4918,-3.4923,-3.4894,-3.4871,-3.4891,-3.487,-3.4864,-3.4869,-3.4842,-3.4892,-3.4877,-3.4844,-3.4795,-3.4869,-3.4891,-3.4901,-3.4765,-3.4763,-3.4762,-3.4761,0,0,-3.5055,-3.5015,-3.5024,-3.5015,-3.4991,-3.4998,-3.5017,-3.5011,-3.5015,-3.5005,-3.5018,-3.5024,-3.4992,-3.4986,-3.4956,-3.4973,-3.5035,-3.4936,-3.4935,-3.4953,-3.5086,-3.511,-3.5122,-3.5011,-3.5013,-3.5014,-3.5087,0,-3.5137,-3.5167,-3.513,-3.5168,-3.5176,-3.5122,-3.5138,-3.5123,-3.5101,-3.5104,-3.5079,-3.5083,-3.5042,-3.5037,-3.5051,-3.5025,-3.5061,-3.502,-3.502,-3.5021,-3.5025,-3.5134,-3.5161,-3.523,-3.5095,-3.5097,-3.5098,0,-3.5238,-3.5232,-3.527,-3.524,-3.5242,-3.5257,-3.5247,-3.5251,-3.5233,-3.5215,-3.5208,-3.5172,-3.5186,-3.514,-3.5157,-3.5129,-3.5127,-3.5114,-3.5116,-3.5113,-3.5063,-3.5132,-3.5251,-3.5261,-3.5112,-3.5111,-3.511,0,-3.5334,-3.5335,-3.5357,-3.5352,-3.5318,-3.5329,-3.5315,-3.5294,-3.5292,-3.5283,-3.5281,-3.5274,-3.527,-3.5264,-3.5226,-3.5197,-3.5247,-3.5199,-3.523,-3.5231,-3.5242,-3.5242,-3.536,-3.5245,-3.5245,-3.5244,-3.5244,0,-3.5429,-3.5454,-3.5399,-3.5413,-3.5439,-3.5394,-3.542,-3.5401,-3.5382,-3.5389,-3.5342,-3.535,-3.53,-3.5302,-3.5272,-3.5289,-3.5288,-3.5272,-3.5264,-3.5275,-3.5277,-3.5272,-3.5266,-3.5247,-3.5247,-3.5246,-3.5246,0,-3.554,-3.5505,-3.5525,-3.5491,-3.5483,-3.5503,-3.5472,-3.5482,-3.5456,-3.5466,-3.5466,-3.5425,-3.5424,-3.5386,-3.5377,-3.5357,-3.5384,-3.5368,-3.5391,-3.5385,-3.5418,-3.5414,-3.5536,-3.5548,-3.5427,-3.5428,-3.5429,0,-3.5602,-3.562,-3.5587,-3.5588,-3.5577,-3.558,-3.5578,-3.5534,-3.5533,-3.5511,-3.5523,-3.5518,-3.5512,-3.5512,-3.5481,-3.5473,-3.5454,-3.5498,-3.5453,-3.5463,-3.5452,-3.545,-3.545,-3.5507,-3.5508,-3.5509,-3.5511,0,-3.5716,-3.5697,-3.5695,-3.5686,-3.5684,-3.5676,-3.5664,-3.5667,-3.5619,-3.562,-3.5618,-3.5613,-3.5603,-3.5597,-3.5583,-3.5567,-3.553,-3.5525,-3.5531,-3.5542,-3.5554,-3.5545,-3.5414,-3.5522,-3.5521,-3.552,-3.5519,-3.5519,-3.5802,-3.5814,-3.5792,-3.5791,-3.5777,-3.5766,-3.5773,-3.5747,-3.5745,-3.5734,-3.5708,-3.571,-3.5687,-3.5664,-3.5651,-3.565,-3.5628,-3.5638,-3.564,-3.5643,-3.5648,-3.5555,-3.5647,-3.5647,-3.5647,-3.5646,-3.5646,0,-3.5911,-3.5893,-3.5893,-3.5877,-3.5875,-3.5841,-3.5825,-3.5825,-3.5827,-3.581,-3.5804,-3.58,-3.5794,-3.5762,-3.5751,-3.5756,-3.5739,-3.5755,-3.5753,-3.5749,-3.567,-3.5664,-3.5769,-3.5769,-3.5769,-3.5769,-3.5769,-3.5769,-3.5967,-3.5984,-3.5962,-3.5971,-3.5953,-3.5955,-3.5948,-3.5937,-3.5922,-3.592,-3.5915,-3.5894,-3.5869,-3.5856,-3.5848,-3.5838,-3.5835,-3.5857,-3.5841,-3.5767,-3.5755,-3.5744,-3.5738,-3.5857,-3.5857,-3.592,-3.5921,-3.5921]}]]